User: anonymous   Login
Location: Unspecified
(0.0000°N, 0.0000°E)
Time: 04:44:51
(UTC+00:00)
Language:

Intelsat II F-2 - Orbit

View from above orbital plane
View from above orbital plane
View from above satellite
View from above satellite

Ground track
Ground track

The orbit data is extracted from the following two-line orbital elements,

1 02639U 67001A   18020.38904118 -.00000054  00000-0  00000+0 0  9998
2 02639   4.2155 296.9504 0013220 306.4430 182.3231  1.00265525 88475
Epoch (UTC): 20 January 2018 09:20:13
Eccentricity: 0.0013220
inclination: 4.2155°
perigee height: 35732 km
apogee height: 35844 km
right ascension of ascending node: 296.9504°
argument of perigee: 306.4430°
revolutions per day: 1.00265525
mean anomaly at epoch: 182.3231°
orbit number at epoch: 8847

The dashed part of the orbit path shows where the satellite is in the earth's shadow,  

DLR